User: anonymous   Login
Location: Unspecified
(0.0000°N, 0.0000°E)
Time: 19:57:56
(UTC+00:00)
Language:

Kosmos-2266 - Orbit

View from above orbital plane
View from above orbital plane
View from above satellite
View from above satellite

Ground track
Ground track

The orbit data is extracted from the following two-line orbital elements,

1 22888U 93070A   18017.51598956  .00000024  00000-0  82618-5 0  9998
2 22888  82.9495 194.8082 0049265 120.0437 293.1106 13.74911496212004
Epoch (UTC): 17 January 2018 12:23:01
Eccentricity: 0.0049265
inclination: 82.9495°
perigee height: 946 km
apogee height: 1018 km
right ascension of ascending node: 194.8082°
argument of perigee: 120.0437°
revolutions per day: 13.74911496
mean anomaly at epoch: 293.1106°
orbit number at epoch: 21200

The dashed part of the orbit path shows where the satellite is in the earth's shadow,  

DLR